[[{"header":{"parameterUnit":"m.s-1","parameterCategory":1,"la1":30.2991,"la2":30.254,"lo1":-89.0895,"lo2":-89.0444,"dy":0.0017,"dx":0.0017,"nx":28,"ny":28,"refTime":"2024-02-10T09:00:00:Z","depth":0,"parameterNumber":2,"parameterNumberName":"U-component_of_WINDS"},"data":[0,0,0,0,0,0,0,0,0,0,0,0,0,0,0,0,0,0,0,0,0,0,0,0,0,0,0,0,0,0,0,0,0,0,0,0,0,0,0,0,0,0,0,0,0,0,0,0,0,0,0,0,0,0,0,0,0,0,-1.2278,-1.2278,0,-1.227,-1.227,-1.227,-1.2243,-1.2242,-1.2242,-1.2241,-1.2231,-1.2231,-1.2232,0,0,0,0,0,0,0,0,0,0,0,0,0,-1.2269,-1.227,-1.2278,-1.2278,-1.2278,-1.227,-1.227,-1.227,-1.2243,-1.2242,-1.2241,-1.2241,-1.2231,-1.2231,-1.2232,0,0,0,0,0,0,0,0,0,0,0,0,0,-1.2268,-1.227,-1.2278,-1.2263,-1.2262,-1.227,-1.227,-1.227,-1.2243,-1.2242,-1.2241,-1.224,-1.2231,-1.2231,-1.2232,-1.2253,0,0,-1.2233,-1.2233,0,0,0,0,0,0,0,0,-1.2268,-1.2269,-1.2266,-1.2264,-1.2263,-1.2256,-1.2263,-1.2264,-1.2243,-1.225,-1.2241,-1.224,-1.224,-1.224,-1.224,-1.2252,-1.2252,-1.2233,-1.2233,-1.2234,-1.2234,0,0,0,0,0,0,0,-1.2268,-1.2269,-1.2275,-1.2266,-1.2264,-1.2257,-1.2256,-1.2263,-1.225,-1.2249,-1.2247,-1.2247,-1.2239,-1.224,-1.224,-1.2252,-1.2233,-1.2233,-1.2234,-1.2234,-1.2282,-1.2283,0,0,0,0,0,0,-1.2271,-1.2269,-1.2275,-1.2274,-1.2264,-1.2258,-1.2257,-1.2259,-1.225,-1.2248,-1.2248,-1.2246,-1.2239,-1.2239,-1.2239,-1.2264,-1.2234,-1.2234,-1.2234,-1.2281,-1.2282,-1.2283,0,0,0,0,0,0,-1.2271,-1.2272,-1.2275,-1.2271,-1.2271,-1.2259,-1.2262,-1.226,-1.226,-1.2249,-1.2246,-1.2251,-1.2239,-1.2239,-1.225,-1.2263,-1.2234,-1.2235,-1.228,-1.2281,-1.2283,-1.2313,0,0,0,0,0,0,-1.2271,-1.2272,-1.2279,-1.2272,-1.2272,-1.2286,-1.2263,-1.226,-1.2261,-1.2259,-1.2251,-1.2249,-1.2238,-1.2249,-1.225,-1.2263,-1.2235,-1.2278,-1.228,-1.2282,-1.2311,-1.2315,-1.2319,0,0,0,0,0,-1.227,-1.2287,-1.228,-1.2281,-1.2281,-1.2287,-1.2287,-1.2274,-1.2263,-1.227,-1.2263,-1.2249,-1.2262,-1.2251,-1.2252,-1.2265,-1.2278,-1.228,-1.2282,-1.2309,-1.2314,-1.2319,0,0,0,0,0,0,-1.2296,-1.2286,-1.2277,-1.2293,-1.2291,-1.2282,-1.2291,-1.2281,-1.2282,-1.2279,-1.2263,-1.2262,-1.2276,-1.2271,-1.2259,-1.2286,-1.2267,-1.227,-1.2287,-1.2293,-1.2297,-1.2297,-1.2235,0,0,0,0,0,-1.2303,-1.2309,-1.23,-1.2315,-1.2314,-1.2303,-1.2305,-1.2296,-1.2294,-1.2293,-1.2286,-1.2284,-1.2288,-1.229,-1.2292,-1.2311,-1.2309,-1.232,-1.2324,-1.2328,-1.233,-1.234,-1.2345,-1.2291,-1.2291,-1.2291,0,0,-1.2318,-1.2314,-1.2318,-1.232,-1.2317,-1.2324,-1.2303,-1.231,-1.2315,-1.2293,-1.2304,-1.23,-1.2296,-1.2311,-1.2318,-1.2308,-1.2345,-1.2331,-1.2334,-1.2334,-1.2343,-1.2348,-1.2353,-1.2292,-1.2292,-1.2292,0,0,-1.2349,-1.2346,-1.2358,-1.2357,-1.2355,-1.2348,-1.2351,-1.2344,-1.2341,-1.2352,-1.2336,-1.2342,-1.2348,-1.2346,-1.2346,-1.238,-1.2367,-1.2381,-1.2403,-1.2413,-1.2418,-1.2421,-1.2434,-1.2438,-1.2384,-1.2384,-1.2384,0,-1.2368,-1.2378,-1.2366,-1.2375,-1.2376,-1.2359,-1.2371,-1.2371,-1.2369,-1.237,-1.236,-1.2369,-1.2365,-1.238,-1.2388,-1.2389,-1.2392,-1.2381,-1.2418,-1.2422,-1.2425,-1.2437,-1.2441,-1.2385,-1.2385,-1.2385,-1.2385,0,-1.2401,-1.2408,-1.2419,-1.2419,-1.2421,-1.2432,-1.2422,-1.2426,-1.2418,-1.2412,-1.2424,-1.2419,-1.2421,-1.2424,-1.2415,-1.2439,-1.2433,-1.2421,-1.2402,-1.2432,-1.2443,-1.2447,-1.2388,-1.2387,-1.2387,-1.2386,0,0,-1.2445,-1.2441,-1.2445,-1.2445,-1.2442,-1.2447,-1.2458,-1.2461,-1.2465,-1.2465,-1.2474,-1.2481,-1.247,-1.247,-1.2462,-1.2471,-1.2498,-1.2457,-1.2457,-1.2465,-1.2524,-1.2533,-1.2538,-1.2491,-1.2491,-1.2492,-1.2525,0,-1.2475,-1.2493,-1.2484,-1.2503,-1.251,-1.2495,-1.2504,-1.2504,-1.2499,-1.2504,-1.2499,-1.2505,-1.249,-1.249,-1.2499,-1.2493,-1.251,-1.2491,-1.2498,-1.2498,-1.2499,-1.2544,-1.2553,-1.2584,-1.2529,-1.2529,-1.253,0,-1.2511,-1.2514,-1.2534,-1.2532,-1.2535,-1.2543,-1.2546,-1.2551,-1.2551,-1.2547,-1.2549,-1.2538,-1.2549,-1.2532,-1.2546,-1.2534,-1.2536,-1.2534,-1.2535,-1.2535,-1.2515,-1.2544,-1.2593,-1.2598,-1.2536,-1.2536,-1.2535,0,-1.2542,-1.2551,-1.2565,-1.2565,-1.2563,-1.2569,-1.2568,-1.2567,-1.257,-1.2573,-1.2575,-1.2579,-1.2581,-1.2584,-1.2575,-1.2563,-1.2591,-1.2573,-1.2588,-1.2588,-1.2593,-1.2593,-1.2643,-1.2596,-1.2596,-1.2596,-1.2596,0,-1.2575,-1.2588,-1.2579,-1.2587,-1.2601,-1.2591,-1.2606,-1.2603,-1.2603,-1.2611,-1.2598,-1.2605,-1.2593,-1.26,-1.2593,-1.2607,-1.2607,-1.2605,-1.2603,-1.2605,-1.2606,-1.2606,-1.2604,-1.2597,-1.2597,-1.2597,-1.2597,0,-1.2611,-1.2605,-1.2619,-1.2616,-1.2616,-1.2627,-1.2624,-1.2632,-1.2628,-1.2638,-1.264,-1.2633,-1.264,-1.2632,-1.2638,-1.2634,-1.2652,-1.2647,-1.2652,-1.2651,-1.2666,-1.2665,-1.2718,-1.2724,-1.2674,-1.2674,-1.2675,0,-1.2632,-1.2642,-1.2641,-1.2646,-1.2646,-1.2654,-1.2658,-1.2649,-1.2653,-1.2655,-1.2663,-1.2669,-1.2673,-1.2686,-1.2681,-1.2686,-1.2681,-1.2699,-1.2681,-1.2684,-1.2681,-1.268,-1.2681,-1.2702,-1.2703,-1.2703,-1.2704,0,-1.2671,-1.2668,-1.2674,-1.268,-1.2685,-1.2689,-1.2691,-1.2696,-1.2687,-1.2693,-1.2701,-1.2705,-1.2712,-1.2719,-1.2723,-1.2722,-1.2711,-1.271,-1.2714,-1.2716,-1.2719,-1.2718,-1.2662,-1.2708,-1.2708,-1.2707,-1.2707,-1.2707,-1.27,-1.2708,-1.271,-1.2717,-1.2719,-1.2722,-1.273,-1.2728,-1.2734,-1.274,-1.2735,-1.2745,-1.2746,-1.275,-1.2751,-1.2758,-1.275,-1.2756,-1.2757,-1.2758,-1.2761,-1.2719,-1.2759,-1.2759,-1.2759,-1.2759,-1.2759,0,-1.2737,-1.2738,-1.2745,-1.2751,-1.2757,-1.2749,-1.2752,-1.2758,-1.2767,-1.2769,-1.2774,-1.2784,-1.2791,-1.2788,-1.2794,-1.2801,-1.2796,-1.2803,-1.2802,-1.2802,-1.2767,-1.2763,-1.2806,-1.2806,-1.2806,-1.2806,-1.2806,-1.2806,-1.2758,-1.2772,-1.277,-1.2786,-1.2786,-1.2796,-1.2799,-1.2803,-1.2804,-1.2816,-1.2822,-1.2821,-1.2821,-1.2828,-1.2834,-1.2833,-1.2836,-1.2844,-1.2841,-1.2809,-1.2804,-1.2799,-1.2796,-1.2845,-1.2845,-1.2875,-1.2875,-1.2875]},{"header":{"parameterUnit":"m.s-1","parameterCategory":1,"la1":30.2991,"la2":30.254,"lo1":-89.0895,"lo2":-89.0444,"dy":0.0017,"dx":0.0017,"nx":28,"ny":28,"refTime":"2024-02-10T09:00:00:Z","depth":0,"parameterNumber":3,"parameterNumberName":"V-component_of_WINDS"},"data":[0,0,0,0,0,0,0,0,0,0,0,0,0,0,0,0,0,0,0,0,0,0,0,0,0,0,0,0,0,0,0,0,0,0,0,0,0,0,0,0,0,0,0,0,0,0,0,0,0,0,0,0,0,0,0,0,0,0,1.3447,1.3447,0,1.3379,1.3378,1.3377,1.3352,1.3352,1.3352,1.3353,1.3278,1.3276,1.3274,0,0,0,0,0,0,0,0,0,0,0,0,0,1.3553,1.3551,1.3447,1.3447,1.3446,1.3379,1.3378,1.3377,1.3352,1.3352,1.3352,1.3353,1.3279,1.3276,1.3274,0,0,0,0,0,0,0,0,0,0,0,0,0,1.3498,1.355,1.3448,1.3425,1.3422,1.3379,1.3378,1.3377,1.3352,1.3352,1.3352,1.3353,1.328,1.3277,1.3273,1.3246,0,0,1.3263,1.3262,0,0,0,0,0,0,0,0,1.3501,1.3494,1.3429,1.3427,1.3424,1.3374,1.3388,1.3333,1.3352,1.3378,1.3353,1.3353,1.331,1.3304,1.329,1.3243,1.324,1.3263,1.3261,1.326,1.3259,0,0,0,0,0,0,0,1.3505,1.3497,1.342,1.3428,1.3425,1.3417,1.341,1.3378,1.3343,1.3376,1.3374,1.3367,1.3308,1.3294,1.3288,1.3239,1.3263,1.326,1.3258,1.3257,1.3166,1.3166,0,0,0,0,0,0,1.3513,1.35,1.3422,1.3418,1.3464,1.3415,1.3407,1.339,1.3343,1.3336,1.3366,1.3366,1.3299,1.3292,1.3286,1.3251,1.326,1.3257,1.3255,1.3167,1.3166,1.3166,0,0,0,0,0,0,1.3515,1.3506,1.3425,1.3459,1.3448,1.3413,1.3394,1.3388,1.3374,1.3336,1.3329,1.3358,1.3299,1.329,1.3257,1.3248,1.3255,1.3252,1.3167,1.3167,1.3166,1.3182,0,0,0,0,0,0,1.3518,1.3507,1.3497,1.3459,1.3446,1.3398,1.3393,1.3387,1.3369,1.3367,1.3326,1.332,1.3299,1.3262,1.3254,1.3244,1.325,1.3168,1.3167,1.3166,1.3182,1.3182,1.3182,0,0,0,0,0,1.3522,1.3503,1.3497,1.3488,1.3433,1.3398,1.3391,1.3368,1.3368,1.3357,1.3333,1.3321,1.3251,1.3259,1.3249,1.3238,1.3168,1.3167,1.3166,1.3182,1.3182,1.3182,0,0,0,0,0,0,1.354,1.3498,1.349,1.3458,1.3432,1.3394,1.3379,1.3368,1.334,1.334,1.3311,1.3302,1.3271,1.3251,1.3261,1.321,1.3209,1.3206,1.3224,1.3224,1.3224,1.3229,1.3247,0,0,0,0,0,1.354,1.3517,1.3481,1.3456,1.3444,1.3414,1.3398,1.3383,1.3354,1.3342,1.3316,1.3287,1.3259,1.324,1.3212,1.318,1.317,1.3168,1.3168,1.3168,1.3165,1.3148,1.3146,1.3163,1.3163,1.3163,0,0,1.354,1.3515,1.3501,1.3459,1.3437,1.3412,1.3405,1.3378,1.336,1.3338,1.3305,1.3285,1.3251,1.3218,1.3203,1.3201,1.3159,1.3167,1.3167,1.3164,1.3146,1.3145,1.3144,1.3162,1.3162,1.3162,0,0,1.3528,1.3506,1.3484,1.3463,1.343,1.3411,1.3406,1.3369,1.3356,1.3323,1.3306,1.3283,1.3234,1.3211,1.3193,1.3174,1.3162,1.3165,1.3165,1.3148,1.3147,1.3145,1.3139,1.3136,1.3163,1.3163,1.3163,0,1.3532,1.3495,1.3474,1.3449,1.3431,1.3412,1.3389,1.3369,1.3328,1.3316,1.3315,1.3254,1.323,1.3192,1.3188,1.3174,1.3167,1.3169,1.3149,1.3147,1.3146,1.3139,1.3136,1.3164,1.3164,1.3164,1.3164,0,1.3502,1.3477,1.3462,1.3426,1.3406,1.3382,1.3356,1.3339,1.3326,1.3307,1.3274,1.3244,1.321,1.32,1.3186,1.316,1.316,1.3155,1.3152,1.3145,1.3138,1.3136,1.3165,1.3165,1.3164,1.3164,0,0,1.3497,1.3451,1.3446,1.3429,1.3393,1.3372,1.3348,1.3316,1.3302,1.3274,1.3253,1.3213,1.3208,1.3188,1.3171,1.3156,1.3144,1.3152,1.3151,1.3151,1.3113,1.3118,1.3115,1.3136,1.3135,1.3135,1.3116,0,1.348,1.3437,1.3417,1.3382,1.3359,1.3341,1.332,1.3295,1.3276,1.3253,1.3232,1.3204,1.32,1.3187,1.3172,1.3149,1.3136,1.315,1.3114,1.3113,1.3123,1.3112,1.3116,1.31,1.3114,1.3113,1.3113,0,1.3454,1.3429,1.3392,1.336,1.3349,1.333,1.33,1.3279,1.325,1.3237,1.3216,1.3201,1.3173,1.3174,1.3136,1.3146,1.3131,1.3117,1.3116,1.3111,1.3112,1.3106,1.3094,1.3092,1.3108,1.3109,1.3109,0,1.3454,1.3411,1.3384,1.3371,1.3332,1.3319,1.3303,1.3274,1.3257,1.323,1.3219,1.3189,1.3172,1.3149,1.3126,1.3129,1.309,1.3089,1.3079,1.3079,1.307,1.3071,1.3055,1.3061,1.3061,1.3062,1.3062,0,1.3437,1.3415,1.3384,1.3367,1.3342,1.332,1.3296,1.3277,1.3253,1.3231,1.3214,1.3194,1.3165,1.3141,1.3123,1.3094,1.3087,1.3076,1.3071,1.3077,1.3078,1.3066,1.3066,1.3061,1.3061,1.3061,1.3061,0,1.3433,1.3411,1.3381,1.3348,1.3339,1.3322,1.3293,1.3276,1.3257,1.323,1.3223,1.3193,1.3165,1.314,1.3101,1.3089,1.306,1.3054,1.307,1.3067,1.3058,1.306,1.3033,1.3029,1.3039,1.3039,1.3039,0,1.3423,1.3406,1.3372,1.3358,1.3342,1.3318,1.3301,1.3278,1.3261,1.3228,1.3214,1.3185,1.316,1.3115,1.3089,1.306,1.3053,1.3047,1.3049,1.3056,1.3053,1.3054,1.3052,1.3046,1.3046,1.3046,1.3046,0,1.3408,1.3398,1.3375,1.3349,1.3329,1.3307,1.3283,1.3272,1.3245,1.3227,1.3198,1.3179,1.3141,1.3112,1.308,1.3062,1.3049,1.3046,1.3042,1.3048,1.3058,1.3052,1.3069,1.3046,1.3046,1.3046,1.3046,1.3046,1.34,1.3385,1.3359,1.3334,1.3315,1.3294,1.3276,1.3257,1.3233,1.3202,1.319,1.3161,1.3133,1.3089,1.3071,1.3047,1.3045,1.3039,1.3038,1.3036,1.3038,1.3062,1.3041,1.3041,1.3041,1.3041,1.3041,0,1.3384,1.3367,1.3344,1.3314,1.3294,1.3286,1.3261,1.3244,1.322,1.3195,1.3172,1.314,1.3112,1.3085,1.3055,1.3042,1.3035,1.3034,1.3035,1.3031,1.3041,1.3047,1.304,1.304,1.304,1.304,1.304,1.304,1.3373,1.3347,1.3335,1.3299,1.3282,1.3255,1.3241,1.3221,1.3202,1.3167,1.3145,1.3128,1.3103,1.3072,1.3045,1.3038,1.3028,1.3029,1.302,1.303,1.303,1.303,1.3036,1.3027,1.3027,1.3011,1.3011,1.3011]}]]